Tracking 23757 objects as of 24-Oct-2021
HD Live streaming from Space Station
objects crossing your sky now

DELTA 1 DEB

Track DELTA 1 DEB now!
10-day predictions


NORAD ID: 9681
Int'l Code: 1975-004GC
Perigee: 719.6 km
Apogee: 801.2 km
Inclination: 98.0 °
Period: 99.9 minutes
Semi major axis: 7131 km
RCS: 0.0088 m2 (small)
Launch date: January 22, 1975
Source: United States (US)
Launch site: AIR FORCE WESTERN TEST RANGE (AFWTR)

Note: This is SATELLITE DEBRIS
aabbcc
Your satellite tracking list
Your tracking list is empty




NASA's NSSDC Master Catalog

Two Line Element Set (TLE):
1 09681U 75004GC  21297.35028332  .00000045  00000-0  25589-4 0  9999
2 09681  97.9923  70.5142 0057205  51.0825 309.5446 14.41585505399194
Source of the keplerian elements: AFSPC